This demonstration page uses our WeatherBlox Daily Observations layout. Learn more.

Left ArrowRight Arrow

44.89941, -97.11507

Hourly Observations for April 27, 2019

Temp ( °F °C ) Dew Point ( °F °C ) Humidity (%) Winds ( mph kmh ) Pressure ( in mb ) Visibility ( mi km ) Precip ( " mm )
12:53 am 00:53 Cloudy 46 7.8 26 -3.3 46 46 E 9 15 29.92 1013 10 16 0.00 0.00
1:53 am 01:53 Cloudy 45 7.2 26 -3.3 48 48 E 9 15 29.90 1013 10 16 0.00 0.00
2:53 am 02:53 Cloudy with Light Rain 43 6.1 30 -1.1 60 60 ESE 15 24 29.91 1013 10 16 0.00 0.03
3:10 am 03:10 Cloudy with Light Rain 40 4.4 32 0 73 73 ESE 15 24 29.94 1014 7 11 0.01 0.25
3:53 am 03:53 Cloudy with Light Rain 38 3.3 33 0.6 83 83 E 10 17 29.91 1013 10 16 0.04 1.02
4:53 am 04:53 Cloudy with Rain 37 2.8 33 0.6 86 86 ENE 13 20 29.93 1014 9 14 0.06 1.52
5:05 am 05:05 Cloudy with Rain 36 2.2 33 0.6 89 89 ENE 15 24 29.96 1015 6 10 0.02 0.51
5:25 am 05:25 Cloudy with Rain 35 1.7 32 0 89 89 NE 17 28 29.98 1015 6 10 0.06 1.52
5:38 am 05:38 Cloudy with Light Snow 35 1.7 32 0 89 89 ENE 13 20 29.99 1015 4 6 0.08 2.03
5:53 am 05:53 Cloudy with Light Snow 33 0.6 32 0 96 96 NE 10 17 29.94 1014 2 3 0.11 2.79
6:05 am 06:05 Cloudy with Light Snow 33 0.6 31 -0.6 92 92 NE 12 19 29.98 1015 2 3 0.02 0.51
6:37 am 06:37 Cloudy with Light Snow 33 0.6 31 -0.6 92 92 ENE 13 20 29.98 1015 2 3 0.05 1.27
6:53 am 06:53 Cloudy with Light Snow 33 0.6 31 -0.6 92 92 ENE 9 15 29.95 1014 3 5 0.06 1.52
7:24 am 07:24 Cloudy with Light Snow 34 1.1 32 0 92 92 ENE 9 15 30.00 1016 8 13 0.01 0.25
7:39 am 07:39 Cloudy 34 1.1 32 0 92 92 NE 10 17 30.01 1016 10 16 0.01 0.25
7:50 am 07:50 Cloudy 34 1 32 0 93 93 ENE 9 15 30.01 1016 10 16 0.01 0.25
7:53 am 07:53 Cloudy 34 1.1 32 0 92 92 ENE 10 17 29.98 1015 10 16 0.01 0.25
8:24 am 08:24 Cloudy 35 1.7 33 0.6 93 93 ENE 9 15 30.02 1016 10 16 0.00 0.00
8:38 am 08:38 Cloudy 35 1.7 33 0.6 93 93 ENE 8 13 30.02 1016 10 16 0.00 0.00
8:49 am 08:49 Cloudy 36 2 34 1 93 93 ENE 9 15 30.01 1016 10 16 0.00 0.00
8:53 am 08:53 Cloudy 36 2.2 33 0.6 89 89 ENE 8 13 29.99 1016 10 16 0.00 0.00
9:53 am 09:53 Cloudy 37 2.8 34 1.1 89 89 E 8 13 30.01 1016 10 16 0.00 0.00
10:42 am 10:42 Cloudy 38 3.3 34 1.1 86 86 E 7 11 30.05 1017 10 16 0.00 0.00
10:53 am 10:53 Cloudy 38 3.3 34 1.1 86 86 E 9 15 30.03 1017 10 16 0.00 0.00
11:53 am 11:53 Mostly Cloudy 42 5.6 34 1.1 73 73 E 9 15 30.03 1017 10 16 0.00 0.00
12:53 pm 12:53 Cloudy 45 7.2 31 -0.6 58 58 NNE 13 20 30.02 1017 10 16 0.00 0.00
1:53 pm 13:53 Cloudy 47 8.3 28 -2.2 48 48 E 12 19 30.02 1017 10 16 0.00 0.00
2:53 pm 14:53 Cloudy 48 8.9 28 -2.2 46 46 E 9 15 30.01 1016 10 16 0.00 0.00
3:53 pm 15:53 Cloudy 49 9.4 27 -2.8 43 43 NE 8 13 30.01 1016 10 16 0.00 0.00
4:53 pm 16:53 Cloudy 50 10 27 -2.8 41 41 NNE 5 7 30.01 1016 10 16 0.00 0.00
5:53 pm 17:53 Mostly Cloudy 49 9.4 27 -2.8 43 43 SE 6 9 30.00 1016 10 16 0.00 0.00
6:53 pm 18:53 Partly Cloudy 49 9.4 29 -1.7 46 46 S 7 11 30.01 1016 10 16 0.00 0.00
7:53 pm 19:53 Sunny 45 7.2 30 -1.1 56 56 S 5 7 30.01 1016 10 16 0.00 0.00
8:53 pm 20:53 Mostly Cloudy 44 6.7 33 0.6 65 65 S 6 9 30.03 1017 10 16 0.00 0.00
9:53 pm 21:53 Mostly Clear 43 6.1 33 0.6 68 68 S 7 11 30.04 1017 10 16 0.00 0.00
10:53 pm 22:53 Clear 41 5 34 1.1 76 76 S 6 9 30.05 1018 10 16 0.00 0.00
11:53 pm 23:53 Clear 40 4.4 34 1.1 79 79 SSW 12 19 30.06 1018 10 16 0.00 0.00

Powered by AerisWeather